BOX514 EDDP-OMDB

Flight info

Callsign BOX514
Flight time N/A
Altitude 33000
Route DRN2E DRN Z21 OMELO DCT EVIKU DCT ROMIS DCT NARKA DCT TIDGA DCT IRLOX DCT RONBU P975 ARTAT UP975 ERGUN UL124 EVSAS/N0480F350 UL124 BONAM L319 DASDO L223 LAM G666 ORSAR R784 TATLA L223 VUTEB
Aircraft B77L/H-SDE1E2E3FGHIJ2J3J4J5M1RWXY/LB1D1

Departure

Time 2026-05-08 08:31
Airport Leipzig/Halle Airport (EDDP)

Arrival

Time N/A
Airport Dubai International Airport (OMDB)
Time Latitude Longitude Altitude Speed Heading
2026-05-08 08:08 51.40885 12.24332 464 ft 0 kts 84°
2026-05-08 08:23 51.40883 12.24299 466 ft 3 kts 84°
2026-05-08 08:24 51.40879 12.24264 465 ft 4 kts 63°
2026-05-08 08:24 51.40868 12.24241 462 ft 4 kts 15°
2026-05-08 08:24 51.40843 12.24239 465 ft 4 kts 354°
2026-05-08 08:24 51.40832 12.24240 467 ft 0 kts 356°
2026-05-08 08:26 51.40841 12.24239 466 ft 7 kts 355°
2026-05-08 08:26 51.40963 12.24222 469 ft 21 kts 357°
2026-05-08 08:26 51.41060 12.24182 470 ft 11 kts 302°
2026-05-08 08:26 51.41069 12.24064 470 ft 11 kts 269°
2026-05-08 08:27 51.41063 12.23917 471 ft 16 kts 265°
2026-05-08 08:27 51.41054 12.23714 475 ft 23 kts 265°
2026-05-08 08:27 51.41039 12.23421 472 ft 27 kts 266°
2026-05-08 08:27 51.41027 12.23124 468 ft 27 kts 266°
2026-05-08 08:28 51.41012 12.22822 467 ft 27 kts 265°
2026-05-08 08:28 51.40997 12.22520 463 ft 27 kts 266°
2026-05-08 08:28 51.41036 12.22316 461 ft 16 kts 336°
2026-05-08 08:28 51.41071 12.22187 461 ft 13 kts 260°
2026-05-08 08:29 51.41061 12.22011 460 ft 23 kts 266°
2026-05-08 08:29 51.41046 12.21712 462 ft 27 kts 264°
2026-05-08 08:29 51.41034 12.21406 456 ft 27 kts 266°
2026-05-08 08:29 51.41019 12.21101 450 ft 28 kts 265°
2026-05-08 08:30 51.41004 12.20783 433 ft 28 kts 265°
2026-05-08 08:30 51.41005 12.20522 428 ft 15 kts 305°
2026-05-08 08:30 51.41166 12.20625 432 ft 19 kts 80°
2026-05-08 08:31 51.41189 12.21090 450 ft 81 kts 86°
2026-05-08 08:31 51.41256 12.22530 489 ft 171 kts 85°
2026-05-08 08:31 51.41348 12.24554 1419 ft 188 kts 87°
2026-05-08 08:31 51.41423 12.26678 2485 ft 198 kts 87°
2026-05-08 08:32 51.41514 12.28960 3138 ft 211 kts 86°
2026-05-08 08:32 51.41618 12.31345 3777 ft 223 kts 85°
2026-05-08 08:32 51.41751 12.33895 4411 ft 237 kts 85°
2026-05-08 08:32 51.41884 12.36690 4809 ft 259 kts 85°
2026-05-08 08:33 51.42017 12.39590 5764 ft 257 kts 86°
2026-05-08 08:33 51.42153 12.42355 6945 ft 249 kts 86°
2026-05-08 08:33 51.42276 12.45204 7519 ft 263 kts 86°
2026-05-08 08:33 51.42388 12.48140 8379 ft 264 kts 85°
2026-05-08 08:34 51.42525 12.51097 9016 ft 275 kts 85°
2026-05-08 08:34 51.42667 12.54209 9647 ft 283 kts 86°
2026-05-08 08:34 51.42431 12.57277 10520 ft 277 kts 108°
2026-05-08 08:34 51.41612 12.60146 11023 ft 295 kts 119°
2026-05-08 08:35 51.40486 12.63074 11203 ft 322 kts 123°
2026-05-08 08:35 51.39204 12.66185 11426 ft 349 kts 123°
2026-05-08 08:35 51.37812 12.69540 11684 ft 372 kts 123°
2026-05-08 08:35 51.36372 12.73043 12412 ft 380 kts 123°
2026-05-08 08:36 51.34913 12.76632 13183 ft 388 kts 123°
2026-05-08 08:36 51.33438 12.80293 13966 ft 396 kts 123°
2026-05-08 08:36 51.31939 12.84033 14677 ft 401 kts 123°
2026-05-08 08:36 51.30430 12.87807 15489 ft 405 kts 123°
2026-05-08 08:37 51.28913 12.91605 16297 ft 408 kts 123°
2026-05-08 08:37 51.27374 12.95453 17069 ft 413 kts 123°
2026-05-08 08:37 51.25816 12.99342 17789 ft 418 kts 123°
2026-05-08 08:37 51.24239 13.03274 18506 ft 423 kts 124°
2026-05-08 08:38 51.22643 13.07245 19140 ft 427 kts 124°
2026-05-08 08:38 51.21029 13.11258 19807 ft 431 kts 124°
2026-05-08 08:38 51.19402 13.15296 20441 ft 436 kts 124°
2026-05-08 08:38 51.17754 13.19378 21052 ft 440 kts 124°
2026-05-08 08:39 51.16094 13.23499 21669 ft 444 kts 124°
2026-05-08 08:39 51.14435 13.27671 22273 ft 448 kts 123°
2026-05-08 08:39 51.12768 13.31883 22878 ft 452 kts 123°
2026-05-08 08:39 51.11083 13.36137 23454 ft 456 kts 123°
2026-05-08 08:40 51.09381 13.40423 23994 ft 460 kts 123°
2026-05-08 08:40 51.07662 13.44740 24484 ft 464 kts 123°
2026-05-08 08:40 51.05949 13.49033 24991 ft 467 kts 124°
2026-05-08 08:40 51.04200 13.53411 25472 ft 471 kts 124°
2026-05-08 08:41 51.02433 13.57820 25946 ft 475 kts 124°
2026-05-08 08:41 51.00656 13.62251 26399 ft 478 kts 124°
2026-05-08 08:41 50.98864 13.66726 26869 ft 482 kts 123°
2026-05-08 08:41 50.97061 13.71230 27309 ft 485 kts 123°
2026-05-08 08:42 50.95245 13.75761 27751 ft 489 kts 123°
2026-05-08 08:42 50.93409 13.80316 28204 ft 492 kts 124°
2026-05-08 08:42 50.91408 13.84735 28593 ft 495 kts 129°
2026-05-08 08:42 50.89271 13.89019 28992 ft 497 kts 130°
2026-05-08 08:43 50.87118 13.93335 29396 ft 500 kts 129°
2026-05-08 08:43 50.84975 13.97667 29934 ft 499 kts 130°
2026-05-08 08:43 50.82697 14.01800 30477 ft 496 kts 136°
2026-05-08 08:43 50.80197 14.05530 30980 ft 493 kts 140°
2026-05-08 08:44 50.77645 14.09145 31452 ft 492 kts 140°
2026-05-08 08:44 50.75096 14.12743 31901 ft 492 kts 140°
2026-05-08 08:44 50.73406 14.15137 32159 ft 492 kts 140°
2026-05-08 08:44 50.70873 14.18743 32578 ft 491 kts 140°
2026-05-08 08:45 50.68340 14.22368 33009 ft 490 kts 140°
2026-05-08 08:45 50.65813 14.25991 33158 ft 493 kts 140°
2026-05-08 08:45 50.60736 14.33267 33138 ft 491 kts 140°
2026-05-08 08:46 50.55688 14.40477 33139 ft 489 kts 140°
2026-05-08 08:46 50.50647 14.47649 33135 ft 488 kts 140°
2026-05-08 08:47 50.46010 14.55461 33139 ft 492 kts 129°
2026-05-08 08:47 50.42342 14.64476 33132 ft 495 kts 120°
2026-05-08 08:48 50.39058 14.73989 33130 ft 497 kts 120°
2026-05-08 08:48 50.35757 14.83524 33124 ft 498 kts 120°
2026-05-08 08:49 50.32411 14.93052 33121 ft 499 kts 121°
2026-05-08 08:49 50.29039 15.02568 33121 ft 500 kts 121°
2026-05-08 08:50 50.25676 15.12014 33119 ft 500 kts 121°
2026-05-08 08:50 50.22286 15.21504 33113 ft 500 kts 121°
2026-05-08 08:51 50.18890 15.30980 33111 ft 500 kts 121°
2026-05-08 08:51 50.15486 15.40442 33119 ft 500 kts 121°
2026-05-08 08:52 50.12077 15.49886 33126 ft 500 kts 121°
2026-05-08 08:52 50.08659 15.59320 33130 ft 500 kts 121°
2026-05-08 08:53 50.05229 15.68751 33127 ft 500 kts 121°
2026-05-08 08:53 50.01793 15.78164 33130 ft 501 kts 122°
2026-05-08 08:54 49.98347 15.87571 33129 ft 501 kts 122°
2026-05-08 08:54 49.94888 15.96978 33123 ft 501 kts 122°
2026-05-08 08:55 49.91421 16.06373 33121 ft 502 kts 122°
2026-05-08 08:55 49.87964 16.15707 33102 ft 503 kts 122°
2026-05-08 08:56 49.84471 16.25105 33098 ft 503 kts 122°
2026-05-08 08:56 49.80969 16.34495 33097 ft 504 kts 122°
2026-05-08 08:57 49.77453 16.43886 33093 ft 504 kts 122°
2026-05-08 08:57 49.73932 16.53257 33099 ft 505 kts 122°
2026-05-08 08:58 49.70392 16.62643 33082 ft 505 kts 123°
2026-05-08 08:58 49.66846 16.72014 33091 ft 505 kts 123°
2026-05-08 08:59 49.63289 16.81381 33083 ft 505 kts 123°
2026-05-08 08:59 49.59726 16.90727 33085 ft 506 kts 123°
2026-05-08 09:00 49.56155 17.00062 33084 ft 505 kts 123°
2026-05-08 09:00 49.52605 17.09311 33088 ft 505 kts 123°
2026-05-08 09:01 49.49017 17.18624 33090 ft 506 kts 123°
2026-05-08 09:01 49.45395 17.27991 33090 ft 506 kts 123°
2026-05-08 09:02 49.41815 17.37219 33090 ft 506 kts 124°
2026-05-08 09:02 49.38202 17.46500 33093 ft 506 kts 124°
2026-05-08 09:03 49.34577 17.55777 33079 ft 507 kts 124°
2026-05-08 09:03 49.30937 17.65060 33101 ft 508 kts 124°
2026-05-08 09:04 49.27288 17.74333 33073 ft 509 kts 124°
2026-05-08 09:04 49.23629 17.83601 33088 ft 509 kts 124°
2026-05-08 09:05 49.19957 17.92870 33083 ft 510 kts 124°
2026-05-08 09:05 49.16271 18.02146 33068 ft 510 kts 124°
2026-05-08 09:06 49.12564 18.11395 33061 ft 509 kts 126°
2026-05-08 09:06 49.08506 18.20220 33059 ft 508 kts 129°
2026-05-08 09:07 49.04352 18.28958 33048 ft 509 kts 130°
2026-05-08 09:07 49.00205 18.37691 33048 ft 508 kts 129°
2026-05-08 09:08 48.96070 18.46423 33048 ft 508 kts 129°
2026-05-08 09:08 48.91931 18.55160 33182 ft 513 kts 129°
2026-05-08 09:09 48.89834 18.59570 33478 ft 514 kts 130°
2026-05-08 09:09 48.87751 18.63948 33954 ft 511 kts 130°
2026-05-08 09:09 48.85667 18.68322 34360 ft 509 kts 130°
2026-05-08 09:09 48.83593 18.72669 34688 ft 508 kts 130°
2026-05-08 09:10 48.81541 18.76960 34955 ft 508 kts 130°
2026-05-08 09:10 48.79451 18.81319 34995 ft 511 kts 130°
2026-05-08 09:10 48.75262 18.90037 35033 ft 510 kts 130°
2026-05-08 09:11 48.71093 18.98689 35040 ft 507 kts 130°
2026-05-08 09:11 48.66924 19.07312 35050 ft 506 kts 130°
2026-05-08 09:12 48.62764 19.15889 35046 ft 506 kts 130°
2026-05-08 09:12 48.58593 19.24460 35046 ft 506 kts 130°
2026-05-08 09:13 48.54417 19.33014 35051 ft 507 kts 130°
2026-05-08 09:13 48.50228 19.41569 35048 ft 507 kts 130°
2026-05-08 09:14 48.46050 19.50075 35059 ft 508 kts 130°
2026-05-08 09:14 48.41834 19.58630 35053 ft 509 kts 131°
2026-05-08 09:15 48.37607 19.67182 35057 ft 509 kts 131°
2026-05-08 09:15 48.33374 19.75720 35060 ft 509 kts 131°
2026-05-08 09:16 48.29134 19.84244 35072 ft 509 kts 131°
2026-05-08 09:16 48.24891 19.92747 35050 ft 508 kts 131°
2026-05-08 09:17 48.20650 20.01219 35056 ft 507 kts 131°
2026-05-08 09:17 48.16401 20.09683 35059 ft 506 kts 131°
2026-05-08 09:18 48.12178 20.18067 35054 ft 506 kts 131°
2026-05-08 09:18 48.07933 20.26467 35056 ft 505 kts 131°
2026-05-08 09:19 48.03717 20.34786 35054 ft 504 kts 131°
2026-05-08 09:19 47.99468 20.43142 35045 ft 503 kts 131°
2026-05-08 09:20 47.95247 20.51421 35053 ft 503 kts 131°
2026-05-08 09:20 47.90994 20.59734 35050 ft 503 kts 131°
2026-05-08 09:21 47.86733 20.68039 35048 ft 503 kts 131°
2026-05-08 09:23 47.71831 20.96889 35055 ft 504 kts 132°
2026-05-08 09:23 47.67549 21.05122 35054 ft 504 kts 132°
2026-05-08 09:24 47.63257 21.13351 35058 ft 504 kts 132°
2026-05-08 09:24 47.58963 21.21557 35063 ft 504 kts 132°
2026-05-08 09:25 47.54663 21.29751 35077 ft 504 kts 133°
2026-05-08 09:25 47.50357 21.37932 35077 ft 504 kts 133°
2026-05-08 09:26 47.46046 21.46098 35072 ft 504 kts 133°
2026-05-08 09:26 47.41733 21.54245 35073 ft 503 kts 133°
2026-05-08 09:27 47.37419 21.62367 35070 ft 502 kts 133°
2026-05-08 09:27 47.33106 21.70467 35070 ft 502 kts 133°
2026-05-08 09:28 47.28790 21.78551 35065 ft 501 kts 133°
2026-05-08 09:28 47.24450 21.86508 35064 ft 498 kts 137°
2026-05-08 09:29 47.19585 21.93674 35079 ft 493 kts 141°
2026-05-08 09:29 47.14627 22.00672 35073 ft 494 kts 141°
2026-05-08 09:30 47.09711 22.07647 35069 ft 494 kts 141°
2026-05-08 09:30 47.04781 22.14680 35073 ft 495 kts 141°
2026-05-08 09:31 46.99837 22.21726 35075 ft 495 kts 141°
2026-05-08 09:31 46.94889 22.28758 35071 ft 496 kts 141°
2026-05-08 09:32 46.90766 22.34601 35068 ft 496 kts 141°
2026-05-08 09:32 46.85804 22.41615 35076 ft 496 kts 141°
2026-05-08 09:33 46.80853 22.48591 35068 ft 496 kts 141°
2026-05-08 09:33 46.75880 22.55583 35070 ft 496 kts 141°
2026-05-08 09:34 46.70916 22.62540 35078 ft 496 kts 141°
2026-05-08 09:34 46.65929 22.69512 35086 ft 496 kts 141°
2026-05-08 09:35 46.60940 22.76469 35081 ft 497 kts 141°
2026-05-08 09:35 46.55944 22.83417 35073 ft 497 kts 141°
2026-05-08 09:36 46.50980 22.90304 35067 ft 496 kts 141°
2026-05-08 09:36 46.45994 22.97201 35055 ft 494 kts 141°
2026-05-08 09:37 46.41023 23.04064 35062 ft 493 kts 141°
2026-05-08 09:37 46.36117 23.11012 35052 ft 494 kts 139°
2026-05-08 09:38 46.31388 23.18210 35058 ft 493 kts 138°
2026-05-08 09:38 46.26679 23.25403 35062 ft 492 kts 139°
2026-05-08 09:39 46.21941 23.32538 35059 ft 492 kts 139°
2026-05-08 09:39 46.17181 23.39646 35057 ft 491 kts 139°
2026-05-08 09:40 46.12427 23.46719 35042 ft 491 kts 139°
2026-05-08 09:40 46.07670 23.53785 35043 ft 491 kts 139°
2026-05-08 09:41 46.02910 23.60838 35066 ft 491 kts 139°
2026-05-08 09:41 45.98173 23.67838 35054 ft 492 kts 139°
2026-05-08 09:42 45.93398 23.74878 35055 ft 492 kts 139°
2026-05-08 09:42 45.88616 23.81908 35072 ft 492 kts 139°
2026-05-08 09:43 45.83818 23.88945 35067 ft 493 kts 139°
2026-05-08 09:43 45.79017 23.95966 35077 ft 493 kts 139°
2026-05-08 09:44 45.74208 24.02983 35083 ft 493 kts 139°
2026-05-08 09:44 45.69401 24.09978 35069 ft 493 kts 139°
2026-05-08 09:45 45.64591 24.16963 35074 ft 492 kts 139°
2026-05-08 09:45 45.59866 24.23955 35065 ft 493 kts 137°
2026-05-08 09:46 45.55186 24.31107 35067 ft 493 kts 137°
2026-05-08 09:46 45.50507 24.38258 35057 ft 493 kts 137°
2026-05-08 09:47 45.45811 24.45376 35043 ft 493 kts 137°
2026-05-08 09:47 45.41111 24.52462 35053 ft 492 kts 137°
2026-05-08 09:48 45.36402 24.59537 35042 ft 492 kts 137°
2026-05-08 09:48 45.31706 24.66579 35057 ft 491 kts 137°
2026-05-08 09:49 45.26996 24.73623 35046 ft 492 kts 137°
2026-05-08 09:49 45.22277 24.80664 35051 ft 492 kts 137°
2026-05-08 09:50 45.17544 24.87706 35049 ft 493 kts 137°
2026-05-08 09:50 45.12806 24.94740 35042 ft 494 kts 137°
2026-05-08 09:51 45.08052 25.01778 35044 ft 495 kts 137°
2026-05-08 09:51 45.03320 25.08766 35048 ft 496 kts 137°
2026-05-08 09:52 44.98545 25.15800 35037 ft 496 kts 137°
2026-05-08 09:52 44.93760 25.22829 35041 ft 496 kts 137°
2026-05-08 09:53 44.88972 25.29847 35038 ft 496 kts 137°
2026-05-08 09:53 44.84181 25.36850 35033 ft 496 kts 137°
2026-05-08 09:54 44.79388 25.43838 35042 ft 496 kts 137°
2026-05-08 09:54 44.74585 25.50821 35038 ft 496 kts 137°
2026-05-08 09:55 44.69783 25.57786 35034 ft 496 kts 137°
2026-05-08 09:55 44.64970 25.64752 35042 ft 496 kts 137°
2026-05-08 09:56 44.60155 25.71701 35040 ft 497 kts 137°
2026-05-08 09:56 44.55334 25.78639 35043 ft 497 kts 137°
2026-05-08 09:57 44.48111 25.89004 35046 ft 498 kts 138°
2026-05-08 09:57 44.43266 25.95936 35047 ft 498 kts 138°
2026-05-08 09:58 44.38412 26.02862 35045 ft 499 kts 138°
2026-05-08 09:58 44.33545 26.09789 35042 ft 499 kts 138°
2026-05-08 09:59 44.28671 26.16709 35041 ft 500 kts 138°
2026-05-08 09:59 44.23785 26.23629 35036 ft 501 kts 138°
2026-05-08 10:00 44.18888 26.30548 35035 ft 501 kts 138°
2026-05-08 10:00 44.14012 26.37419 35033 ft 502 kts 138°
2026-05-08 10:01 44.09095 26.44336 35030 ft 502 kts 138°
2026-05-08 10:01 44.04295 26.51441 35017 ft 506 kts 131°
2026-05-08 10:02 44.00168 26.59382 35024 ft 508 kts 128°
2026-05-08 10:02 43.96110 26.67414 35048 ft 508 kts 128°
2026-05-08 10:03 43.92021 26.75420 35035 ft 509 kts 128°
2026-05-08 10:03 43.87926 26.83351 35040 ft 509 kts 128°
2026-05-08 10:04 43.83786 26.91328 35047 ft 510 kts 128°
2026-05-08 10:04 43.79644 26.99291 35039 ft 510 kts 128°
2026-05-08 10:05 43.75493 27.07254 35047 ft 510 kts 128°
2026-05-08 10:05 43.71337 27.15207 35037 ft 510 kts 128°
2026-05-08 10:06 43.67171 27.23156 35050 ft 510 kts 128°
2026-05-08 10:06 43.63002 27.31089 35047 ft 510 kts 128°
2026-05-08 10:07 43.58828 27.39011 35049 ft 510 kts 128°
2026-05-08 10:07 43.54643 27.46932 35051 ft 510 kts 128°
2026-05-08 10:08 43.50455 27.54837 35058 ft 511 kts 128°
2026-05-08 10:08 43.46259 27.62734 35062 ft 511 kts 128°
2026-05-08 10:09 43.42058 27.70623 35066 ft 511 kts 128°
2026-05-08 10:09 43.37882 27.78443 35069 ft 511 kts 128°
2026-05-08 10:10 43.33666 27.86316 35072 ft 511 kts 128°
2026-05-08 10:10 43.29446 27.94176 35076 ft 511 kts 128°
2026-05-08 10:11 43.25216 28.02034 35070 ft 512 kts 128°
2026-05-08 10:11 43.20980 28.09881 35080 ft 512 kts 128°
2026-05-08 10:12 43.16737 28.17721 35085 ft 512 kts 128°
2026-05-08 10:12 43.12485 28.25556 35087 ft 513 kts 128°
2026-05-08 10:13 43.08224 28.33389 35096 ft 513 kts 128°
2026-05-08 10:13 43.03955 28.41214 35099 ft 513 kts 128°
2026-05-08 10:14 42.99680 28.49031 35102 ft 513 kts 128°
2026-05-08 10:14 42.95402 28.56832 35098 ft 513 kts 128°
2026-05-08 10:15 42.91123 28.64615 35106 ft 513 kts 128°
2026-05-08 10:15 42.86839 28.72385 35101 ft 512 kts 128°
2026-05-08 10:16 42.82551 28.80143 35105 ft 512 kts 128°
2026-05-08 10:16 42.78262 28.87883 35103 ft 512 kts 128°
2026-05-08 10:17 42.73969 28.95610 35102 ft 512 kts 128°